BEIDOU-3 M4

Last updated on May 15, 2019, 3:07 a.m. UTC

1 43108U 18003B   19134.13404177 -.00000101  00000-0  00000+0 0  9995
2 43108  55.2362  31.3010 0003195 255.9821 219.3826  1.86232835  9108
UTC
Height (km)
Latitude
Longitude
Inclination
Orbital Period
UTC large
Height (km)
Speed (km/s)
/
Latitude / Longitude
Inclination (degrees)
Orbital Period (minutes)
Azimuth
Elevation
Range (km)
Doppler Factor
iOS Compass Heading
iOS Angle

Next 30 passes for location: Hong Kong

Rise time Rise Azimuth (degrees) Set time Set Azimuth (degrees) Duration Max altitude (degrees)

No matching passes for this satellites